sat.trackr.live / text

‹ back to catalog

IRIDE-MS2-HEO-11

NORAD 68983 · 2026-100D

PAYLOAD ACTIVE UNKNOWN

§ Identity

Operator
Country
IT
Launch date
2026-05-03
Launch site
AFWTR
Launch vehicle
Mass (kg)
RCS (m²)

External: N2YO · Heavens-Above · Gunter

§ Orbital elements

Epoch: 2026-05-25T03:20:40.913088Z

Period
96.56 min
Inclination
97.7406°
Eccentricity
0.0002819
Mean motion
14.91297077 rev/d
Perigee alt
591.9 km
Apogee alt
595.9 km
Semi-major
6,972.0 km
B*
1.4384e-4
RAAN
43.0151°
Arg perigee
195.0974°
Mean anomaly
165.0161°
Rev number
326

§ Raw data

IRIDE-MS2-HEO-111 68983U 26100D   26145.13936242  .00001377  00000+0  14384-3 0  99912 68983  97.7406  43.0151 0002819 195.0974 165.0161 14.91297077  3266

JSON: /api/v1/satellites/68983 · /tle

For live sub-satellite position, see the globe view (requires WebGL).

§ Visibility from observer

Set your observer location to see the next 7 days of passes ≥ 10°. The values pass through the URL so the page stays shareable.

No JS? Fill the form by hand. The geolocation button needs JavaScript.